FDX3901 KLAX-KEWR

Flight info

Callsign FDX3901
Flight time N/A
Altitude 33000
Route ORCKA5 LAS J146 DICEE/N0479F350 J146 DVC HBU MCK OVR DSM EVOTE NELLS KEEHO J584 SLT FQM3
Aircraft B77L/H-SDE1E2E3FGHIJ2J3J4J5M1RWXY/LB1D1

Departure

Time N/A
Airport Los Angeles International Airport (KLAX)

Arrival

Time 2026-04-24 11:37
Airport Newark Liberty International Airport (KEWR)
Time Latitude Longitude Altitude Speed Heading
2026-04-24 09:39 41.38922 -94.04862 34797 ft 532 kts 89°
2026-04-24 09:39 41.40121 -93.95148 34796 ft 531 kts 89°
2026-04-24 09:40 41.41311 -93.85441 34798 ft 531 kts 89°
2026-04-24 09:40 41.42491 -93.75744 34755 ft 530 kts 90°
2026-04-24 09:41 41.43661 -93.66063 34781 ft 529 kts 90°
2026-04-24 09:41 41.44711 -93.56383 34783 ft 527 kts 92°
2026-04-24 09:42 41.45615 -93.46695 34773 ft 526 kts 92°
2026-04-24 09:42 41.46507 -93.37005 34784 ft 527 kts 92°
2026-04-24 09:43 41.47419 -93.27306 34787 ft 527 kts 92°
2026-04-24 09:43 41.48336 -93.17600 34790 ft 527 kts 92°
2026-04-24 09:44 41.49242 -93.07947 34780 ft 528 kts 92°
2026-04-24 09:44 41.50142 -92.98244 34773 ft 526 kts 92°
2026-04-24 09:45 41.51031 -92.88564 34771 ft 526 kts 92°
2026-04-24 09:45 41.51912 -92.78874 34789 ft 526 kts 92°
2026-04-24 09:46 41.52784 -92.69181 34791 ft 526 kts 92°
2026-04-24 09:46 41.53645 -92.59507 34798 ft 525 kts 91°
2026-04-24 09:47 41.54500 -92.49842 34780 ft 524 kts 91°
2026-04-24 09:47 41.55345 -92.40188 34771 ft 523 kts 91°
2026-04-24 09:48 41.56180 -92.30555 34758 ft 522 kts 92°
2026-04-24 09:48 41.57003 -92.20931 34761 ft 521 kts 91°
2026-04-24 09:49 41.57819 -92.11310 34763 ft 522 kts 91°
2026-04-24 09:49 41.58629 -92.01679 34768 ft 522 kts 91°
2026-04-24 09:50 41.59426 -91.92094 34743 ft 523 kts 91°
2026-04-24 09:50 41.60203 -91.82678 34754 ft 517 kts 90°
2026-04-24 09:51 41.60983 -91.73105 34783 ft 519 kts 91°
2026-04-24 09:51 41.61757 -91.63477 34779 ft 522 kts 91°
2026-04-24 09:52 41.62529 -91.53785 34778 ft 524 kts 91°
2026-04-24 09:52 41.63295 -91.44095 34772 ft 524 kts 90°
2026-04-24 09:53 41.64053 -91.34398 34770 ft 524 kts 90°
2026-04-24 09:53 41.64801 -91.24718 34759 ft 523 kts 90°
2026-04-24 09:54 41.65540 -91.15049 34751 ft 522 kts 90°
2026-04-24 09:54 41.66267 -91.05427 34735 ft 519 kts 90°
2026-04-24 09:55 41.66983 -90.95843 34736 ft 517 kts 90°
2026-04-24 09:55 41.67687 -90.86293 34747 ft 515 kts 90°
2026-04-24 09:56 41.68382 -90.76766 34760 ft 514 kts 90°
2026-04-24 09:56 41.69063 -90.67302 34753 ft 515 kts 89°
2026-04-24 09:57 41.69744 -90.57751 34697 ft 517 kts 89°
2026-04-24 09:57 41.70418 -90.48163 34703 ft 519 kts 89°
2026-04-24 09:58 41.71089 -90.38523 34758 ft 521 kts 89°
2026-04-24 09:58 41.71753 -90.28865 34759 ft 521 kts 89°
2026-04-24 09:59 41.72397 -90.19391 34753 ft 521 kts 89°
2026-04-24 09:59 41.73045 -90.09747 34742 ft 520 kts 89°
2026-04-24 10:00 41.73684 -90.00093 34736 ft 519 kts 89°
2026-04-24 10:00 41.74309 -89.90557 34736 ft 507 kts 88°
2026-04-24 10:01 41.74913 -89.81208 34758 ft 503 kts 88°
2026-04-24 10:01 41.75506 -89.71867 34737 ft 503 kts 88°
2026-04-24 10:02 41.76093 -89.62518 34740 ft 504 kts 88°
2026-04-24 10:02 41.76674 -89.53143 34753 ft 505 kts 88°
2026-04-24 10:03 41.77250 -89.43735 34731 ft 507 kts 88°
2026-04-24 10:03 41.77816 -89.34370 34738 ft 507 kts 89°
2026-04-24 10:04 41.78378 -89.24944 34741 ft 508 kts 89°
2026-04-24 10:04 41.78932 -89.15505 34741 ft 508 kts 88°
2026-04-24 10:05 41.79480 -89.06055 34733 ft 509 kts 88°
2026-04-24 10:05 41.80021 -88.96571 34731 ft 511 kts 88°
2026-04-24 10:06 41.80820 -88.82320 34738 ft 511 kts 88°
2026-04-24 10:07 41.81344 -88.72820 34746 ft 510 kts 88°
2026-04-24 10:07 41.81858 -88.63347 34740 ft 509 kts 89°
2026-04-24 10:08 41.82358 -88.53957 34742 ft 508 kts 89°
2026-04-24 10:08 41.82854 -88.44515 34727 ft 507 kts 88°
2026-04-24 10:09 41.83342 -88.35080 34723 ft 507 kts 88°
2026-04-24 10:09 41.83821 -88.25658 34733 ft 507 kts 89°
2026-04-24 10:10 41.84294 -88.16215 34729 ft 507 kts 89°
2026-04-24 10:10 41.84748 -88.06983 34710 ft 508 kts 88°
2026-04-24 10:11 41.85197 -87.97705 34709 ft 500 kts 88°
2026-04-24 10:11 41.85641 -87.88390 34744 ft 506 kts 88°
2026-04-24 10:12 41.86084 -87.78895 34745 ft 512 kts 88°
2026-04-24 10:12 41.86449 -87.70966 34738 ft 512 kts 88°
2026-04-24 10:13 41.86945 -87.60039 34723 ft 497 kts 88°
2026-04-24 10:13 41.87289 -87.52300 34737 ft 496 kts 88°
2026-04-24 10:14 41.87691 -87.43056 34742 ft 497 kts 88°
2026-04-24 10:14 41.88088 -87.33790 34759 ft 498 kts 88°
2026-04-24 10:15 41.88478 -87.24506 34780 ft 498 kts 87°
2026-04-24 10:15 41.88858 -87.15290 34777 ft 498 kts 87°
2026-04-24 10:16 41.89233 -87.06020 34797 ft 497 kts 87°
2026-04-24 10:16 41.89600 -86.96753 34797 ft 496 kts 87°
2026-04-24 10:17 41.89958 -86.87519 34801 ft 494 kts 86°
2026-04-24 10:17 41.90308 -86.78307 34792 ft 493 kts 86°
2026-04-24 10:18 41.90649 -86.69129 34796 ft 492 kts 86°
2026-04-24 10:18 41.90983 -86.59960 34789 ft 491 kts 86°
2026-04-24 10:19 41.91309 -86.50810 34802 ft 490 kts 86°
2026-04-24 10:19 41.91626 -86.41693 34792 ft 488 kts 86°
2026-04-24 10:20 41.91936 -86.32594 34811 ft 487 kts 86°
2026-04-24 10:20 41.92238 -86.23504 34805 ft 487 kts 86°
2026-04-24 10:21 41.92532 -86.14433 34821 ft 487 kts 86°
2026-04-24 10:21 41.92820 -86.05328 34819 ft 488 kts 86°
2026-04-24 10:22 41.93100 -85.96272 34822 ft 489 kts 86°
2026-04-24 10:22 41.93374 -85.87129 34827 ft 491 kts 86°
2026-04-24 10:23 41.93643 -85.77955 34831 ft 492 kts 86°
2026-04-24 10:23 41.93904 -85.68776 34834 ft 492 kts 86°
2026-04-24 10:24 41.94110 -85.61365 34833 ft 493 kts 86°
2026-04-24 10:24 41.94358 -85.52170 34833 ft 492 kts 87°
2026-04-24 10:25 41.94600 -85.42975 34831 ft 492 kts 87°
2026-04-24 10:25 41.94833 -85.33798 34839 ft 492 kts 87°
2026-04-24 10:26 41.95061 -85.24612 34850 ft 492 kts 87°
2026-04-24 10:26 41.95168 -85.15426 34854 ft 492 kts 89°
2026-04-24 10:27 41.95102 -85.06246 34847 ft 492 kts 89°
2026-04-24 10:27 41.95030 -84.97060 34851 ft 492 kts 89°
2026-04-24 10:28 41.94979 -84.87873 34852 ft 492 kts 89°
2026-04-24 10:28 41.94933 -84.78745 34876 ft 492 kts 89°
2026-04-24 10:29 41.94881 -84.69554 34883 ft 492 kts 89°
2026-04-24 10:29 41.94819 -84.60343 34877 ft 493 kts 89°
2026-04-24 10:30 41.94750 -84.51141 34878 ft 493 kts 89°
2026-04-24 10:30 41.94673 -84.41925 34881 ft 493 kts 89°
2026-04-24 10:31 41.94589 -84.32704 34889 ft 494 kts 89°
2026-04-24 10:31 41.94498 -84.23479 34892 ft 494 kts 89°
2026-04-24 10:32 41.94398 -84.14242 34900 ft 494 kts 89°
2026-04-24 10:32 41.94292 -84.05009 34898 ft 495 kts 89°
2026-04-24 10:33 41.94177 -83.95758 34896 ft 495 kts 89°
2026-04-24 10:33 41.94056 -83.86508 34892 ft 495 kts 89°
2026-04-24 10:34 41.93927 -83.77255 34879 ft 496 kts 89°
2026-04-24 10:34 41.93791 -83.67989 34880 ft 496 kts 89°
2026-04-24 10:35 41.93648 -83.58729 34881 ft 496 kts 89°
2026-04-24 10:35 41.93498 -83.49466 34883 ft 496 kts 89°
2026-04-24 10:36 41.93424 -83.40193 34886 ft 496 kts 88°
2026-04-24 10:36 41.93407 -83.30920 34889 ft 497 kts 88°
2026-04-24 10:37 41.93378 -83.21696 34888 ft 497 kts 88°
2026-04-24 10:37 41.93327 -83.12413 34899 ft 497 kts 88°
2026-04-24 10:38 41.93265 -83.03118 34890 ft 498 kts 88°
2026-04-24 10:38 41.93195 -82.93825 34889 ft 498 kts 88°
2026-04-24 10:39 41.93118 -82.84538 34890 ft 497 kts 88°
2026-04-24 10:39 41.93034 -82.75256 34902 ft 497 kts 88°
2026-04-24 10:40 41.92943 -82.65956 34894 ft 497 kts 88°
2026-04-24 10:40 41.92844 -82.56673 34894 ft 497 kts 88°
2026-04-24 10:41 41.92738 -82.47397 34904 ft 497 kts 88°
2026-04-24 10:41 41.92624 -82.38119 34928 ft 497 kts 88°
2026-04-24 10:42 41.92503 -82.28856 34906 ft 495 kts 88°
2026-04-24 10:42 41.92375 -82.19628 34896 ft 493 kts 88°
2026-04-24 10:43 41.92241 -82.10443 34905 ft 491 kts 88°
2026-04-24 10:43 41.92100 -82.01291 34917 ft 490 kts 88°
2026-04-24 10:44 41.91953 -81.92152 34918 ft 490 kts 88°
2026-04-24 10:44 41.91782 -81.83000 34921 ft 491 kts 90°
2026-04-24 10:45 41.91060 -81.73860 34923 ft 494 kts 94°
2026-04-24 10:45 41.90197 -81.64701 34933 ft 495 kts 94°
2026-04-24 10:46 41.89352 -81.55584 34917 ft 496 kts 93°
2026-04-24 10:46 41.88511 -81.46330 34913 ft 497 kts 93°
2026-04-24 10:47 41.87680 -81.37183 34911 ft 497 kts 93°
2026-04-24 10:47 41.86834 -81.27972 34926 ft 497 kts 94°
2026-04-24 10:48 41.85978 -81.18756 34920 ft 497 kts 93°
2026-04-24 10:48 41.85116 -81.09549 34907 ft 497 kts 93°
2026-04-24 10:49 41.84247 -81.00357 34915 ft 497 kts 93°
2026-04-24 10:49 41.83371 -80.91160 34909 ft 497 kts 93°
2026-04-24 10:50 41.82487 -80.81967 34918 ft 498 kts 93°
2026-04-24 10:50 41.81594 -80.72753 34904 ft 498 kts 93°
2026-04-24 10:51 41.80696 -80.63550 34909 ft 498 kts 93°
2026-04-24 10:51 41.79787 -80.54334 34917 ft 499 kts 94°
2026-04-24 10:52 41.78864 -80.45112 34916 ft 500 kts 94°
2026-04-24 10:52 41.77932 -80.35872 34914 ft 500 kts 94°
2026-04-24 10:53 41.77000 -80.26692 34914 ft 501 kts 94°
2026-04-24 10:53 41.76054 -80.17446 34919 ft 501 kts 94°
2026-04-24 10:54 41.75101 -80.08202 34923 ft 501 kts 94°
2026-04-24 10:54 41.74138 -79.98945 34917 ft 502 kts 94°
2026-04-24 10:55 41.73169 -79.89699 34918 ft 502 kts 94°
2026-04-24 10:55 41.72191 -79.80436 34916 ft 502 kts 94°
2026-04-24 10:56 41.71206 -79.71180 34928 ft 502 kts 94°
2026-04-24 10:56 41.70381 -79.63479 34919 ft 503 kts 94°
2026-04-24 10:57 41.69380 -79.54215 34921 ft 503 kts 94°
2026-04-24 10:57 41.68373 -79.44955 34918 ft 503 kts 94°
2026-04-24 10:58 41.67357 -79.35685 34926 ft 504 kts 94°
2026-04-24 10:58 41.66335 -79.26417 34913 ft 503 kts 94°
2026-04-24 10:59 41.65305 -79.17162 34919 ft 503 kts 95°
2026-04-24 10:59 41.64270 -79.07921 34919 ft 502 kts 95°
2026-04-24 11:00 41.63231 -78.98676 34927 ft 502 kts 95°
2026-04-24 11:00 41.62186 -78.89440 34913 ft 502 kts 95°
2026-04-24 11:01 41.61135 -78.80217 34924 ft 502 kts 95°
2026-04-24 11:01 41.60082 -78.71054 34945 ft 502 kts 95°
2026-04-24 11:02 41.59015 -78.61826 34948 ft 502 kts 95°
2026-04-24 11:02 41.57940 -78.52602 34936 ft 502 kts 95°
2026-04-24 11:03 41.56858 -78.43383 34933 ft 503 kts 95°
2026-04-24 11:03 41.55769 -78.34169 34935 ft 502 kts 95°
2026-04-24 11:04 41.54672 -78.24953 34931 ft 502 kts 95°
2026-04-24 11:04 41.53568 -78.15744 34940 ft 503 kts 95°
2026-04-24 11:05 41.52457 -78.06532 34941 ft 503 kts 95°
2026-04-24 11:05 41.51338 -77.97318 34943 ft 503 kts 95°
2026-04-24 11:06 41.50102 -77.88127 34942 ft 504 kts 97°
2026-04-24 11:06 41.48765 -77.78924 34939 ft 505 kts 97°
2026-04-24 11:07 41.46768 -77.65112 34930 ft 506 kts 97°
2026-04-24 11:07 41.45444 -77.55901 34948 ft 506 kts 97°
2026-04-24 11:08 41.44113 -77.46677 34943 ft 507 kts 97°
2026-04-24 11:08 41.42768 -77.37443 34935 ft 507 kts 97°
2026-04-24 11:09 41.41426 -77.28270 34939 ft 507 kts 97°
2026-04-24 11:09 41.40069 -77.19052 34937 ft 507 kts 97°
2026-04-24 11:10 41.38703 -77.09825 34934 ft 508 kts 97°
2026-04-24 11:10 41.37329 -77.00592 34936 ft 508 kts 97°
2026-04-24 11:11 41.35945 -76.91349 34930 ft 509 kts 97°
2026-04-24 11:11 41.34554 -76.82108 34934 ft 510 kts 97°
2026-04-24 11:12 41.32915 -76.72890 34906 ft 515 kts 104°
2026-04-24 11:12 41.30436 -76.63936 34927 ft 516 kts 108°
2026-04-24 11:13 41.27867 -76.55019 34917 ft 516 kts 107°
2026-04-24 11:13 41.25417 -76.46044 34886 ft 515 kts 106°
2026-04-24 11:14 41.24222 -76.41591 34620 ft 508 kts 105°
2026-04-24 11:14 41.23040 -76.37188 34061 ft 506 kts 105°
2026-04-24 11:14 41.21853 -76.32769 33075 ft 511 kts 106°
2026-04-24 11:14 41.20662 -76.28351 32113 ft 516 kts 106°
2026-04-24 11:15 41.19445 -76.23865 31359 ft 516 kts 107°
2026-04-24 11:15 41.18211 -76.19338 30761 ft 512 kts 107°
2026-04-24 11:15 41.17004 -76.14915 30290 ft 507 kts 107°
2026-04-24 11:15 41.15824 -76.10595 29747 ft 503 kts 107°
2026-04-24 11:16 41.14648 -76.06298 28829 ft 488 kts 107°
2026-04-24 11:16 41.13486 -76.02058 27705 ft 489 kts 107°
2026-04-24 11:16 41.12339 -75.97885 26586 ft 477 kts 107°
2026-04-24 11:16 41.11208 -75.93778 25322 ft 471 kts 107°
2026-04-24 11:17 41.10088 -75.89714 23993 ft 469 kts 108°
2026-04-24 11:17 41.08987 -75.85727 23604 ft 451 kts 108°
2026-04-24 11:17 41.07922 -75.81875 23040 ft 441 kts 108°
2026-04-24 11:17 41.06879 -75.78104 22324 ft 430 kts 108°
2026-04-24 11:18 41.05843 -75.74352 21351 ft 439 kts 107°
2026-04-24 11:18 41.04785 -75.70526 20650 ft 444 kts 108°
2026-04-24 11:18 41.03717 -75.66676 20064 ft 446 kts 108°
2026-04-24 11:18 41.02647 -75.62829 19500 ft 440 kts 108°
2026-04-24 11:19 41.01606 -75.59104 18600 ft 427 kts 108°
2026-04-24 11:19 41.00580 -75.55432 17419 ft 422 kts 108°
2026-04-24 11:19 40.99565 -75.51802 16166 ft 418 kts 107°
2026-04-24 11:19 40.98561 -75.48221 14991 ft 413 kts 107°
2026-04-24 11:20 40.97569 -75.44688 13857 ft 407 kts 107°
2026-04-24 11:20 40.96578 -75.41144 13034 ft 413 kts 107°
2026-04-24 11:20 40.95587 -75.37615 12802 ft 402 kts 107°
2026-04-24 11:20 40.94625 -75.34199 12705 ft 389 kts 107°
2026-04-24 11:21 40.93713 -75.30973 12560 ft 369 kts 106°
2026-04-24 11:21 40.92830 -75.27846 12446 ft 354 kts 106°
2026-04-24 11:21 40.92003 -75.24922 12077 ft 335 kts 106°
2026-04-24 11:21 40.91197 -75.22056 11478 ft 329 kts 106°
2026-04-24 11:22 40.90397 -75.19204 10855 ft 334 kts 106°
2026-04-24 11:22 40.89590 -75.16343 10551 ft 330 kts 107°
2026-04-24 11:22 40.88789 -75.13522 10247 ft 326 kts 107°
2026-04-24 11:22 40.87995 -75.10721 9900 ft 324 kts 107°
2026-04-24 11:23 40.87206 -75.07930 9495 ft 324 kts 107°
2026-04-24 11:23 40.86421 -75.05148 9124 ft 322 kts 107°
2026-04-24 11:23 40.85640 -75.02384 8759 ft 320 kts 107°
2026-04-24 11:23 40.84867 -74.99643 8442 ft 316 kts 107°
2026-04-24 11:24 40.84103 -74.96942 8123 ft 312 kts 107°
2026-04-24 11:24 40.83345 -74.94270 7752 ft 310 kts 107°
2026-04-24 11:24 40.82575 -74.91619 7377 ft 306 kts 112°
2026-04-24 11:24 40.81395 -74.89283 6913 ft 308 kts 131°
2026-04-24 11:25 40.79965 -74.87218 6677 ft 301 kts 133°
2026-04-24 11:25 40.78569 -74.85183 6535 ft 297 kts 132°
2026-04-24 11:25 40.77201 -74.83166 6399 ft 300 kts 132°
2026-04-24 11:25 40.75806 -74.81090 6242 ft 303 kts 132°
2026-04-24 11:26 40.74416 -74.79012 6109 ft 302 kts 132°
2026-04-24 11:26 40.73018 -74.76916 5950 ft 299 kts 132°
2026-04-24 11:26 40.71666 -74.74886 5800 ft 297 kts 132°
2026-04-24 11:26 40.70316 -74.72853 5666 ft 293 kts 132°
2026-04-24 11:27 40.68982 -74.70843 5524 ft 289 kts 132°
2026-04-24 11:27 40.67666 -74.68859 5390 ft 286 kts 132°
2026-04-24 11:27 40.66357 -74.66885 5268 ft 286 kts 132°
2026-04-24 11:27 40.65036 -74.64897 5140 ft 289 kts 131°
2026-04-24 11:28 40.63711 -74.62903 5010 ft 290 kts 131°
2026-04-24 11:28 40.62387 -74.60909 4873 ft 288 kts 131°
2026-04-24 11:28 40.61070 -74.58931 4697 ft 284 kts 132°
2026-04-24 11:28 40.59776 -74.56988 4370 ft 280 kts 131°
2026-04-24 11:29 40.58496 -74.55067 4017 ft 278 kts 131°
2026-04-24 11:29 40.57228 -74.53165 3683 ft 275 kts 130°
2026-04-24 11:29 40.55980 -74.51294 3493 ft 266 kts 130°
2026-04-24 11:29 40.54770 -74.49478 3498 ft 266 kts 130°
2026-04-24 11:30 40.53533 -74.47621 3524 ft 273 kts 130°
2026-04-24 11:30 40.52269 -74.45730 3543 ft 276 kts 130°
2026-04-24 11:30 40.51005 -74.43841 3535 ft 274 kts 130°
2026-04-24 11:30 40.49781 -74.42005 3490 ft 258 kts 128°
2026-04-24 11:31 40.49017 -74.40008 3412 ft 238 kts 94°
2026-04-24 11:31 40.49129 -74.37927 3268 ft 226 kts 68°
2026-04-24 11:31 40.49610 -74.35965 3169 ft 226 kts 68°
2026-04-24 11:31 40.50072 -74.33997 3056 ft 224 kts 68°
2026-04-24 11:32 40.50526 -74.32055 2934 ft 221 kts 68°
2026-04-24 11:32 40.50974 -74.30143 2862 ft 217 kts 68°
2026-04-24 11:32 40.51494 -74.28309 2800 ft 209 kts 50°
2026-04-24 11:32 40.52515 -74.27079 2821 ft 197 kts 26°
2026-04-24 11:33 40.53693 -74.26284 2792 ft 184 kts 21°
2026-04-24 11:33 40.54837 -74.25572 2855 ft 179 kts 21°
2026-04-24 11:33 40.55910 -74.24904 2821 ft 165 kts 20°
2026-04-24 11:33 40.56911 -74.24300 2781 ft 152 kts 20°
2026-04-24 11:34 40.57831 -74.23726 2548 ft 142 kts 21°
2026-04-24 11:34 40.58710 -74.23171 2267 ft 139 kts 21°
2026-04-24 11:34 40.59590 -74.22615 1910 ft 142 kts 22°
2026-04-24 11:34 40.60480 -74.22049 1830 ft 143 kts 22°
2026-04-24 11:35 40.61384 -74.21477 1730 ft 146 kts 22°
2026-04-24 11:35 40.62313 -74.20895 1303 ft 148 kts 22°
2026-04-24 11:35 40.63215 -74.20311 1087 ft 143 kts 23°
2026-04-24 11:35 40.64126 -74.19735 882 ft 148 kts 24°
2026-04-24 11:36 40.65052 -74.19144 673 ft 147 kts 24°
2026-04-24 11:36 40.65981 -74.18554 466 ft 149 kts 23°
2026-04-24 11:36 40.66911 -74.17962 299 ft 149 kts 23°
2026-04-24 11:36 40.67848 -74.17364 93 ft 145 kts 23°
2026-04-24 11:37 40.68714 -74.16824 30 ft 127 kts 25°
2026-04-24 11:37 40.69277 -74.16467 29 ft 26 kts 25°
2026-04-24 11:37 40.69457 -74.16456 28 ft 21 kts 354°
2026-04-24 11:37 40.69582 -74.16476 26 ft 16 kts 332°
2026-04-24 11:38 40.69641 -74.16603 27 ft 16 kts 298°
2026-04-24 11:38 40.69677 -74.16702 26 ft 4 kts 292°
2026-04-24 11:38 40.69681 -74.16755 26 ft 8 kts 263°
2026-04-24 11:38 40.69659 -74.16858 26 ft 17 kts 245°
2026-04-24 11:39 40.69526 -74.16962 26 ft 27 kts 205°
2026-04-24 11:39 40.69430 -74.17023 26 ft 4 kts 206°
2026-04-24 11:39 40.69409 -74.17036 26 ft 0 kts 205°
2026-04-24 11:39 40.69331 -74.17086 26 ft 14 kts 206°
2026-04-24 11:40 40.69239 -74.17145 26 ft 16 kts 206°
2026-04-24 11:40 40.69132 -74.17213 26 ft 18 kts 205°
2026-04-24 11:40 40.69012 -74.17288 26 ft 20 kts 206°
2026-04-24 11:40 40.68925 -74.17344 27 ft 22 kts 206°
2026-04-24 11:41 40.68784 -74.17434 27 ft 24 kts 206°
2026-04-24 11:41 40.68631 -74.17533 27 ft 25 kts 205°
2026-04-24 11:41 40.68465 -74.17637 26 ft 27 kts 206°
2026-04-24 11:41 40.68289 -74.17748 26 ft 29 kts 205°
2026-04-24 11:42 40.68103 -74.17867 27 ft 30 kts 206°
2026-04-24 11:42 40.67945 -74.17968 27 ft 16 kts 206°
2026-04-24 11:42 40.67896 -74.18000 27 ft 6 kts 206°
2026-04-24 11:42 40.67871 -74.18064 27 ft 9 kts 279°
2026-04-24 11:43 40.67897 -74.18140 26 ft 9 kts 309°
2026-04-24 11:43 40.67933 -74.18188 27 ft 7 kts 302°
2026-04-24 11:43 40.67946 -74.18225 26 ft 0 kts 293°
2026-04-24 11:43 40.67947 -74.18228 26 ft 1 kts 294°
2026-04-24 11:44 40.67949 -74.18234 27 ft 1 kts 294°
2026-04-24 11:44 40.67950 -74.18238 27 ft 0 kts 294°
2026-04-24 11:44 40.67951 -74.18240 27 ft 0 kts 294°